Location: Seattle
(47.6064°N, 122.3308°W)
Time: 04:55:48
(UTC-08:00)

S-56A Canister/Altair - Pass Details

Date: 05 December 2020
Orbit: 633 x 2499 km, 38.9° (Epoch: 23 January)

Event Time Altitude Azimuth Distance (km) Brightness Sun altitude
Rises 15:42:03 0° 206° (SSW) 6,166 13.6 4.0°
Reaches altitude 10° 15:47:01 10° 196° (SSW) 5,127 12.8 3.4°
Maximum altitude 15:58:13 28° 146° (SE) 3,565 11.0 1.9°
Drops below altitude 10° 16:07:35 10° 95° (E) 4,263 10.9 0.7°
Sets 16:11:12 0° 84° (E) 4,990 11.1 0.2°
